This is the latest recevied weather packets stored in our database for station/object KK7HEZ. If no packets are shown the sender has not sent any weather packets the latest 1 day(s).
| Time | Temp. | Humidity | Pressure | Rain* | Wind** | Luminosity | Snow |
|---|---|---|---|---|---|---|---|
| 1778037872 | 15° C | 86% | 1016.1 hPa | 0 mm | - | 0 W/m² | - |
| 1778037568 | 15.56° C | 84% | 1015.9 hPa | 0 mm | - | 0 W/m² | - |
| 1778037266 | 16.67° C | 83% | 1015.8 hPa | 0 mm | - | 1 W/m² | - |
| 1778036963 | 16.67° C | 82% | 1016.1 hPa | 0 mm | - | 3 W/m² | - |
| 1778036055 | 17.78° C | 78% | 1015.8 hPa | 0 mm | - | 12 W/m² | - |
| 1778035751 | 18.33° C | 75% | 1016 hPa | 0 mm | - | 15 W/m² | - |
| 1778035448 | 18.33° C | 76% | 1015.6 hPa | 0 mm | - | 19 W/m² | - |
| 1778035144 | 18.33° C | 74% | 1015.7 hPa | 0 mm | - | 23 W/m² | - |
| 1778034841 | 18.89° C | 75% | 1015.6 hPa | 0 mm | - | 26 W/m² | - |
| 1778034538 | 18.89° C | 74% | 1015.6 hPa | 0 mm | - | 31 W/m² | - |
| 1778033933 | 20° C | 70% | 1015.7 hPa | 0 mm | - | 24 W/m² | - |
| 1778033630 | 20° C | 68% | 1015.5 hPa | 0 mm | - | 27 W/m² | - |
| 1778033327 | 20° C | 68% | 1015.7 hPa | 0 mm | - | 26 W/m² | - |
| 1778033025 | 20.56° C | 67% | 1015.7 hPa | 0 mm | - | 73 W/m² | - |
| 1778032722 | 20.56° C | 67% | 1015.5 hPa | 0 mm | - | 29 W/m² | - |
| 1778032419 | 20.56° C | 67% | 1015.6 hPa | 0 mm | - | 88 W/m² | - |
| 1778032116 | 20.56° C | 67% | 1015.6 hPa | 0 mm | - | 32 W/m² | - |
| 1778031813 | 20.56° C | 66% | 1015.5 hPa | 0 mm | - | 34 W/m² | - |
| 1778031207 | 20° C | 69% | 1015.6 hPa | 0 mm | - | 158 W/m² | - |
| 1778030903 | 20° C | 70% | 1015.7 hPa | 0 mm | - | 164 W/m² | - |
| 1778030601 | 18.89° C | 75% | 1015.6 hPa | 0 mm | - | 172 W/m² | - |
| 1778030298 | 19.44° C | 72% | 1015.9 hPa | 0 mm | - | 52 W/m² | - |
| 1778029994 | 18.89° C | 72% | 1015.7 hPa | 0 mm | - | 189 W/m² | - |
| 1778029692 | 19.44° C | 71% | 1015.7 hPa | 0 mm | - | 202 W/m² | - |
| 1778029390 | 19.44° C | 71% | 1015.7 hPa | 0 mm | - | 228 W/m² | - |
* Rain latest hour (hover to see other rain measurements)
** Current wind speed in m/s (hover to see current wind gust speed)